Погода Весёлая Горка

Погода Весёлая Горка : погода сейчас, прогноз погоды и архив. Всё, что Вы хотите узнать о погоде Весёлая Горка!

Поиск расширенной информации на нашем сайте:

Другие новости

Новости СМИ2

Главная страница сайта

Новости сайта

03.07.2017

Напоминаем, что на нашем специализированном сайте Метеоцентр.Азия вы можете получить высокодетализированные автоматические прогнозы погоды по пунктам России, СНГ и мира в авиационном формате (включающие направление и скорость ветра, видимость, явления погоды, количество и форму облачности, нижнюю и верхнюю границу облачности).


Погода Весёлая Горка - сегодня

Время (UTC), дата Ветер
(°,м/с) 
Видим.   Явления Облачность Т
(°С)
Тd
(°С)
f(%) Тe
(°С)
Pmin
(гПа)
dP
(гПа)
Po
(мм)
O2
(г/м3)
Тmin Tmax R s Состояние
почвы
21 11.12.17 010 (С) 2000 м  снег  10/0 средняя 
[As op]
-17.3 -22.1 66 -20  1017.9  -1.2  743  321  -18    0.4  15  равномерный
сухой снег
100% 
00 12.12.17 360 (С) 2000 м  снег  10/0 средняя 
[As op]
-16.5 -19.5 78 -17  1017.2  -0.6  743  320           
03 12.12.17 020 (С) 1000 м  сильн. снег  10/0 средняя 
[As op]
-14.6 -17.2 81 -15  1016  -1  742  317           
06 12.12.17 020 (С) 1000 м  сильн. снег  10/0 средняя 
[As op]
-12.9 -15.8 79 -15  1016.2  0.4  742  315           
09 12.12.17 020 (С) 1000 м  сильн. снег  10/0 средняя 
[As op]
-11.9 -14.2 83 -14  1017  0.8  743  314    -11.9     
12 12.12.17 020 (С) 1000 м  сильн. снег  10/0 средняя 
[As op]
-10.8 -13 84 -11  1017.8  744  313           
15 12.12.17 020 (С) 1000 м  сильн. снег  10/0 средняя 
[As op]
-10.4 -12.6 84 -12  1019  1.2  745  313           
18 12.12.17 020 (С) 2000 м  снег  10/0 средняя 
[As op]
-9.4 -11.6 84 -11  1020.1  1.2  746  312           
21 12.12.17 030 (СВ) 1000 м  сильн. снег  10/0 средняя 
[As op]
-8.9 -10.9 85 -9  1022.6  2.5  747  312  -11.9    11  37  равномерный
сухой снег
100% 
00 13.12.17 020 (С) 2000 м  снег  10/0 средняя 
[As op]
-8.8 -10.9 85 -10  1025  2.3  749  313           
03 13.12.17 тихо ()   4000 м  слаб. снег  10/0 средняя 
[As op]
-7.5 -10.1 82 -8  1025.5  0.7  750  312           
06 13.12.17 020 (С) 20000 м  {снег}  10/4 600 м кучево-дожд., средняя, верхняя 
[Cb cap|Ac trans|Ci fib]
-8.1 -12.2 72 -8  1026  0.4  750  313           
09 13.12.17 тихо ()   20000 м    3/3 600 м 
[Sc]
-11.4 -13.7 83 -11  1027.2  0.8  751  317    -7.1     
12 13.12.17 020 (С) 20000 м    3/3 600 м 
[Sc]
-14.1 -16 85 -14  1027.3  -0.2  750  320           
15 13.12.17 тихо ()   20000 м    ясно 
-14.3 -16.3 85 -14  1026.5  -0.8  750  320           
18 13.12.17 тихо ()   20000 м    ясно 
-14.6 -16.6 85 -15  1025.9  -0.7  749  320           
21 13.12.17 тихо ()   20000 м  слаб. снег  10/0 верхняя 
[Cs]
-16.6 -18.8 83 -17  1025.3  -0.8  749  323  -17    0.0  42  равномерный
сухой снег
100% 
00 14.12.17 тихо ()   10 км  слаб. снег  10/0 средняя 
[As op]
-15.4 -17.5 84 -15  1025.1  0.1  749  321           
03 14.12.17 тихо ()   10 км  слаб. снег  10/0 средняя 
[As op]
-13.9 -15.9 85 -14  1024.1  -0.8  748  319           
06 14.12.17 тихо ()   10 км  {снег}  10/0 средняя 
[Ac As]
-13.1 -15.3 84 -13  1023.4  -0.6  748  318           
09 14.12.17 тихо ()   10 км  слаб. снег  10/0 средняя 
[As op]
-15.3 -17.6 83 -15  1024.1  0.4  748  321    -12.3  0.0     
12 14.12.17 тихо ()   10 км  слаб. снег  10/0 средняя 
[As op]
-16.4 -18.8 82 -16  1024.1  0.1  748  322           
15 14.12.17 тихо ()   10 км  {снег}  10/0 верхняя 
[Cs]
-16.5 -19 81 -17  1023.8  -0.3  748  322           
18 14.12.17 тихо ()   10 км  {снег}  10/0 верхняя 
[Cs]
-16.7 -19.1 82 -17  1023.3  -0.6  747  322           
21 14.12.17 тихо ()   10 км    10/0 верхняя 
[Cs]
-17.9 -20.5 80 -18  1022.8  -0.6  747  324  -17.9    0.0  42  равномерный
сухой снег
100% 
Время (UTC), дата Ветер
(°,м/с) 
Видим.   Явления Облачность Т
(°С)
Тd
(°С)
f(%) Тe
(°С)
Pmin
(гПа)
dP
(гПа)
Po
(мм)
O2
(г/м3)
Тmin Tmax R s Состояние
почвы

Для получения пояснительной информации подведите курсор к названию столбца.

ПОГОДА Весёлая Горка - архив

Всё, что Вы хотите узнать о погоде Весёлая Горка - удобно и подробно!

Выберите нужную дату (начиная с 1 января 2015* года) и нажмите кнопку "Найти".
Будут отображены архивные сводки погоды по пункту Весёлая Горка, начиная с указанной даты.


Отображать данные в формате CSV (для использования в таблицах Excel)


Внимание! Наш архив погоды предназначен исключительно для личного некоммерческого использования в познавательных целях. Если Вам необходимы официальные справки о состоянии погоды (для производственных, юридических, коммерческих и т.п. целей), обращайтесь в органы Росгидромета.

*Примечание: данная дата относится к архиву по метеостанциям СССР (Россия, СНГ, Балтия).
Архив по метеостанциям Зарубежной Европы и Азии (кроме Китая) хранится 10 дней, по другим регионам земного шара (Китай, Африка, Америка, Австралия, Океания) - 1 день.

Весёлая Горка - район местоположения метеостанции


Название, широта, долгота, высота метеостанции:
Весёлая Горка 52.3°ш. 135.8°д. 201 м над ур. моря [Российская Федерация]

Дополнительная информация

В oтличие oт бoльшинства пoгoдных сайтoв мы публикуем пoдрoбную метеoинфoрмацию в детальнoм прoфессиoнальнoм фoрмате.

Характеристики температуры и влажнoсти вoздуха измеряются на высoте 2 м в тени вдали oт зданий и деревьев.
Скoрoсть ветра измеряется на высoте 10 м (на урoвне рoста челoвека скoрoсть ветра ниже в 1.5-2 раза). Если метеoстанция нахoдится в гoрoде или в лесу, тo скoрoсть ветра занижена на 2-4 м/с пo сравнению с oткрытым местoм. Скoрoсть ветра над акватoриями крупных рек и oзёр, а также на вершинах хoлмoв на 2-5 м/с выше, чем в oбычных услoвиях.
Атмoсфернoе давление в разных тoчках местнoсти мoжет значительнo oтличаться oт давления на метеoстанции, в зависимoсти oт услoвий рельефа (при пoдъёме на 10 м давление пoнижается примернo на 1 мм рт.ст.).